Regional Weather Roundup
Issued by NWS

Home | Current Version | Previous Version | Graphics & Text | Print | Product List | Glossary Off
Versions: 1 2 3 4 5 6 7 8 9 10 11 12 13 14 15 16 17 18 19 20 21 22 23 24 25 26 27 28 29 30 31 32 33 34 35 36 37 38 39 40 41 42 43 44 45 46 47 48 49 50

000
ASUS43 KMKX 191521
RWRWI

WISCONSIN REGIONAL WEATHER ROUNDUP
NATIONAL WEATHER SERVICE MILWAUKEE/SULLIVAN WI
900 AM CST SUN FEB 19 2017

NOTE: "FAIR" INDICATES FEW OR NO CLOUDS BELOW 12,000 FEET WITH NO
SIGNIFICANT WEATHER AND/OR OBSTRUCTIONS TO VISIBILITY.

WIZ001-002-006>008-014>016-023>028-191600-
NORTHWEST WISCONSIN

CITY           SKY/WX    TMP DP  RH WIND       PRES   REMARKS
SUPERIOR ARPT  CLOUDY    32  30  92 CALM      29.99F
ASHLAND        PTSUNNY   37  32  82 CALM      30.01R
HAYWARD        CLOUDY    34  30  85 N5        29.98S WCI  30
SIREN          CLOUDY    38  36  93 CALM      29.97S
CUMBERLAND     MOSUNNY   36  34  93 CALM      29.98R
RICE LAKE      MOSUNNY   36  34  92 CALM      30.00S
CHETEK         MOSUNNY   37  34  89 CALM      29.99S
LADYSMITH      MOSUNNY   39  34  82 CALM      30.00F
EAU CLAIRE     SUNNY     38  34  85 CALM      30.00R
MENOMONIE      SUNNY     37  34  90 CALM      30.00S
NEW RICHMOND   CLOUDY    40  39  97 SE5       29.97S
OSCEOLA        CLOUDY    39  39 100 E6        30.00R WCI  34
$$

WIZ003>005-009-010-017-018-191600-
NORTH CENTRAL WISCONSIN

CITY           SKY/WX    TMP DP  RH WIND       PRES   REMARKS
MANITOWISH WTR MOSUNNY   33  29  86 CALM      29.99R
ARBOR VITAE    MOSUNNY   37  30  78 CALM      29.99R
WOODRUFF       MOSUNNY   37  30  78 CALM      29.99R
RHINELANDER    SUNNY     38  32  79 CALM      30.00R
EAGLE RIVER    MOSUNNY   33  27  79 CALM      29.99R
LAND O LAKES   CLOUDY    38  29  69 CALM      30.00S
PHILLIPS       MOSUNNY   35  32  88 CALM      29.99S
TOMAHAWK       SUNNY     38  32  79 CALM      30.01S
MEDFORD        MOSUNNY   34  31  91 CALM      30.00R
MERRILL        NOT AVBL
$$

WIZ029-030-035-036-043>047-191600-
CENTRAL WISCONSIN

CITY           SKY/WX    TMP DP  RH WIND       PRES   REMARKS
WAUSAU         SUNNY     36  32  85 CALM      29.99S
MOSINEE        MOSUNNY   39  36  87 CALM      30.01R
MARSHFIELD     SUNNY     40  33  76 CALM      30.00R
STEVENS POINT  SUNNY     36  32  85 CALM      30.02R
WAUPACA        SUNNY     48  36  63 CALM      30.03R
WAUTOMA        SUNNY     40  35  83 CALM      30.03R
WISC RAPIDS    SUNNY     41  33  73 CALM      30.02S
CAMP DOUGLAS   MOSUNNY   39  34  81 E3        30.01S
$$

WIZ011>013-019>022-031-037>040-048>050-191600-
NORTHEAST WISCONSIN

CITY           SKY/WX    TMP DP  RH WIND       PRES   REMARKS
ANTIGO         SUNNY     32  31  94 CALM      30.01S
SHAWANO        SUNNY     47  33  59 CALM      30.03S
OCONTO         SUNNY     46  32  58 W5        30.03R
STURGEON BAY   SUNNY     45  32  60 W6        30.02R
GREEN BAY      SUNNY     49  37  63 CALM      30.03R
MANITOWOC      SUNNY     48  34  58 MISG      30.03R
APPLETON       MOSUNNY   45  34  65 CALM      30.01R
CLINTONVILLE   SUNNY     45  32  61 CALM      30.02S
OSHKOSH        SUNNY     45  34  65 NW6       30.02R
$$

WIZ032>034-041-042-053>061-191600-
SOUTHWEST WISCONSIN

CITY           SKY/WX    TMP DP  RH WIND       PRES   REMARKS
LA CROSSE      CLOUDY    36  32  85 S5        30.02R WCI  32
SPARTA         SUNNY     38  33  82 CALM      30.02R
VIROQUA        CLOUDY    46  33  59 CALM      30.01R
BOSCOBEL       MOSUNNY   36  31  82 CALM      30.04R
PRAIRIE DU CHI SUNNY     33  32  96 CALM      30.03S
PLATTEVILLE    SUNNY     45  38  78 CALM      30.02S
$$

WIZ056-057-062-063-064-067-068-191600-
SOUTH CENTRAL WISCONSIN

CITY           SKY/WX    TMP DP  RH WIND       PRES   REMARKS
REEDSBURG      SUNNY     38  33  82 CALM      30.02R
BARABOO/DELLS  SUNNY     40  34  79 CALM      30.02S
LONE ROCK      SUNNY     34  30  85 E3        30.04S
MINERAL POINT  SUNNY     46  36  66 SE3       30.02R
MADISON        MOSUNNY   39  34  82 CALM      30.02S
MIDDLETON      SUNNY     46  37  69 CALM      30.03S
WATERTOWN      SUNNY     41  36  81 CALM      30.03S
MONROE         SUNNY     50  32  50 SE5       30.03S
JANESVILLE     MOSUNNY   39  37  93 CALM      30.04R
$$

WIZ051-052-058>065-066-070>072-191600-
SOUTHEAST WISCONSIN

CITY           SKY/WX    TMP DP  RH WIND       PRES   REMARKS
MILWAUKEE      MOSUNNY   53  34  48 N5        30.04R
WAUKESHA       SUNNY     45  34  65 CALM      30.04R
MILWAUKEE/TIMM SUNNY     48  32  53 CALM      30.04R
RACINE         SUNNY     50  33  52 CALM      30.05R
KENOSHA        SUNNY     49  35  58 NW3       30.04R
FOND DU LAC    SUNNY     43  32  65 SW5       30.03R
SHEBOYGAN      SUNNY     48  34  58 NW6       30.03R
WEST BEND      SUNNY     48  34  57 CALM      30.03S
JUNEAU         SUNNY     41  35  78 CALM      30.04S
$$

LSZ147-162-191600-
LAKE SUPERIOR

STATION/POSITION TIME  TEMP    WIND        PRES    WAVE
                       AIR SEA DIR/SP/G            HT/PER
                 (UTC) (F)     (DEG/KT/KT) (MB)    (FT/S)
DEVILS ISLAND    1500   37      60/  3/  4 1016.9R
PORT WING        1430   33     130/  1/  2 1015.9R
SAXON HARBOR     1440   34     200/  2/  4 1015.9R
$$

LMZ867-665-643>646-191600-
LAKE MICHIGAN

STATION/POSITION TIME  TEMP    WIND        PRES    WAVE
                       AIR SEA DIR/SP/G            HT/PER
                 (UTC) (F)     (DEG/KT/KT) (MB)    (FT/S)
CHAMBERS ISLAND  1440   44     230/  3/  6 1015.6R
NORTHPORT PIER   1500   41     320/  7/ 13 1016.3
SISTER BAY       1435             CALM       N/A
KEWAUNEE LAKESHO 1454   45     300/  4/  7 1016.1R
SHEBOYGAN LAKESH 1500   48     350/  2/  4 1017.0R
PORT WASHINGTON  1440   51     320/  5/  7 1017.9R
MILWAUKEE LAKESH 1500   52     340/  3/  4   N/A
KENOSHA   LAKESH 1500   49      CALM  /  3 1017.3
$$

TC  - TEMPERATURE IN CELSIUS
VSB - VISIBILITY IN STATUTE MILES
WCI - WIND CHILL INDEX
HX  - HEAT INDEX





USA.gov is the U.S. government's official web portal to all federal, state and local government web resources and services.